Probability
0 0 0 0 0 0 0 0 0 0 0 0 0 0 0 0 0 0 0 0 0 0 0 0 0 0 0 0 0 0 0 0 0 0 0 0 0 0 0 0 0 0 0
0 0 0 0 0 0 0 0 0 0 0 0 0 0 0 0 0 0 0 0 0 0 0 0 0 0 0 0 0 0 0 0 0 0 0 0 0 0 0 0 0 0 0
0 0 0 0 0 0 0 0 0 0 0 0 0 0 0 0 0 0 0 0 0 0 0 0 0 0 0 0 0 0 0 0 0 0 0 0 0 0 0 0 0 0 0
0 0 0 0 0 0 0 0 0 0 0 0 0 0 0 0 0 0 0 0 0 0 0 0 0 0 0 0 0 0 0 0 0 0 0 0 0 0 0 0 0 0 0
0 0 0 0 0 0 0 0 0 0 0 0 0 0 0 0 0 0 0 0 0 0 0 0 0 0 0 0 0 0 0 0 0 0 0 0 0 0 0 0 0 0 0
0 0 0 0 0 0 0 0 0 0 0 0 0 0 0 0 0 0 0 0 0 0 0 0 0 0 0 0 0 0 0 0 0 0 0 0 0 0 0 0 0 0 0
0 0 0 0 0 0 0 0 0 0 0 0 0 0 0 0 0 0 0 0 0 0 0 0 0 0 0 0 0 0 0 0 0 0 0 0 0 0 0 0 0 0 0
0 0 0 0 0 0 0 0 0 0 0 0 0 0 0 0 0 0 0 0 0 0 0 0 0 0 0 0 0 0 0 0 0 0 0 0 0 0 0 0 0 0 0
0 0 0 0 0 0 0 0 0 0 0 0 0 0 0 0 0 0 0 0 0 0 0 0 0 0 0 0 0 0 0 0 0 0 0 0 0 0 0 0 0 0 0
0 0 0 0 0 0 0 0 0 0 0 0 0 0 0 0 0 0 0 0 0 0 0 0 0 0 0 0 0 0 0 0 0 0 0 0 0 0 0 0 0 0 0
0 0 0 0 0 0 0 0 0 0 0 0 0 0 0 0 0 0 0 0 0 0 0 0 0 0 0 0 0 0 0 0 0 0 0 0 0 0 0 0 0 0 0
0 0 0 0 0 0 0 0 0 0 0 0 0 0 0 0 0 0 0 0 0 0 0 0 0 0 0 0 0 0 0 0 0 0 0 0 0 0 0 0 0 0 0
0 0 0 0 0 0 0 0 0 0 0 0 0 0 0 0 0 0 0 0 0 0 0 0 0 0 0 0 0 0 0 0 0 0 0 0 0 0 0 0 0 0 0
0 0 0 0 0 0 0 0 0 0 0 0 0 0 0 0 0 0 0 0 0 0 0 0 0 0 0 0 0 0 0 0 0 0 0 0 0 0 0 0 0 0 0
0 0 0 0 0 0 0 0 0 0 0 0 0 0 0 0 0 0 0 0 0 0 0 0 0 0 0 0 0 0 0 0 0 0 0 0 0 0 0 0 0 0 0
0 0 0 0 0 0 0 0 0 0 0 0 0 0 0 0 0 0 0 0 0 0 0 0 0 0 0 0 0 0 0 0 0 0 0 0 0 0 0 0 0 0 0
0 0 0 0 0 0 0 0 0 0 0 0 0 0 0 0 0 0 0 0 0 0 0 0 0 0 0 0 0 0 0 0 0 0 0 0 0 0 0 0 0 0 0
0 0 0 0 0 0 0 0 0 0 0 0 0 0 0 0 0 0 0 0 0 0 0 0 0 0 0 0 0 0 0 0 0 0 0 0 0 0 0 0 0 0 0
0 0 0 0 0 0 0 0 0 0 0 0 0 0 0 0 0 0 0 0 0 0 0 0 0 0 0 0 0 0 0 0 0 0 0 0 0 0 0 0 0 0 0
0 0 0 0 0 0 0 0 0 0 0 0 0 0 0 0 0 0 0 0 0 0 0 0 0 0 0 0 0 0 0 0 0 0 0 0 0 0 0 0 0 0 0
0 0 0 0 0 0 0 0 0 0 0 0 0 0 0 0 0 0 0 0 0 0 0 0 0 0 0 0 0 0 0 0 0 0 0 0 0 0 0 0 0 0 0
0 0 0 0 0 0 0 0 0 0 0 0 0 0 0 0 0 0 0 0 0 0 0 0 0 0 0 0 0 0 0 0 0 0 0 0 0 0 0 0 0 0 0
0 0 0 0 0 0 0 0 0 0 0 0 0 0 0 0 0 0 0 0 0 0 0 0 0 0 0 0 0 0 0 0 0 0 0 0 0 0 0 0 0 0 0
0 0 0 0 0 0 0 0 0 0 0 0 0 0 0 0 0 0 0 0 0 0 0 0 0 0 0 0 0 0 0 0 0 0 0 0 0 0 0 0 0 0 0
0 0 0 0 0 0 0 0 0 0 0 0 0 0 0 0 0 0 0 0 0 0 0 0 0 0 0 0 0 0 0 0 0 0 0 0 0 0 0 0 0 0 0
0 0 0 0 0 0 0 0 0 0 0 0 0 0 0 0 0 0 0 0 0 0 0 0 0 0 0 0 0 0 0 0 0 0 0 0 0 0 0 0 0 0 0
Wind_Speed
3 3 4 3 3 4 3 3 3 2 3 3 2 2 2 2 2 2 1 1 1 0 0 1 1 1 1 1 1 1 2 2 5 6 4 4 5 6 6 5 5 5 6
3 3 3 3 3 3 3 3 3 3 2 2 2 2 1 2 2 2 2 1 1 1 1 1 2 1 1 1 1 2 2 2 3 6 6 4 5 5 6 6 6 6 6
3 4 3 3 3 3 3 3 3 3 2 2 2 2 1 2 2 2 2 2 1 2 2 2 2 1 2 2 2 2 2 3 2 4 6 5 4 4 6 6 6 5 6
3 4 3 2 2 2 2 2 2 2 2 2 2 2 2 2 2 2 2 2 1 1 2 2 2 2 2 2 2 3 2 3 3 3 4 5 5 4 4 5 7 5 6
3 3 2 2 2 2 2 2 2 2 1 2 1 1 1 1 2 2 2 2 1 1 2 2 2 3 3 3 3 3 2 2 3 3 4 4 5 5 5 4 6 7 6
3 3 2 3 3 2 2 2 2 1 1 1 1 1 1 1 2 2 2 1 1 2 2 2 3 3 3 4 5 5 4 3 3 3 4 5 5 5 5 5 5 6 6
3 2 2 3 3 2 2 2 1 1 1 1 0 0 1 2 2 2 2 1 2 2 3 3 3 3 3 2 4 5 5 6 5 4 4 5 5 5 5 6 5 6 7
3 2 2 2 2 2 2 2 1 1 1 1 1 1 1 2 3 3 2 1 1 2 3 3 3 3 3 3 2 3 3 4 4 3 4 5 5 5 4 5 6 7 6
2 2 2 2 2 2 1 1 1 1 1 1 1 1 1 3 3 3 2 1 1 2 2 2 3 3 4 4 3 3 4 4 5 6 7 7 8 9 6 4 4 5 6
1 1 2 2 2 1 1 1 1 1 1 1 1 1 2 2 4 4 3 1 2 2 2 2 3 3 4 4 2 2 4 4 4 4 5 6 5 6 7 4 3 4 5
1 2 2 2 2 1 1 1 0 0 1 1 2 2 2 3 4 4 4 2 2 2 2 2 2 5 5 5 4 3 5 4 3 3 4 4 4 3 3 3 3 3 4
2 2 2 2 1 1 1 1 1 0 0 1 1 2 2 3 3 4 5 4 4 2 2 2 3 5 5 6 4 5 5 4 2 2 3 4 4 4 4 4 4 4 5
2 2 2 2 2 1 1 0 0 0 0 1 1 2 2 2 2 4 5 5 4 3 2 4 5 5 5 4 5 5 4 2 2 2 3 4 3 4 4 4 4 4 5
2 1 1 1 1 1 1 0 0 1 1 1 1 2 2 2 2 2 2 2 3 2 2 3 4 3 3 3 3 3 2 2 2 2 3 3 3 3 3 3 3 4 4
2 1 1 1 0 1 1 1 1 1 2 2 2 2 3 3 4 5 3 2 1 1 1 1 1 1 2 2 2 2 2 2 2 2 3 3 4 4 4 3 3 3 3
1 1 0 0 0 0 1 2 3 2 4 4 4 4 3 4 6 6 6 5 4 3 2 1 1 2 2 2 2 2 2 2 2 3 3 3 4 4 4 4 3 3 4
2 1 1 0 0 0 1 1 2 3 4 4 4 5 5 6 6 6 5 4 3 2 1 1 2 2 2 2 2 2 3 3 3 3 3 3 3 4 4 4 4 4 4
1 1 1 1 1 1 1 1 1 2 3 3 4 5 6 7 7 6 5 3 2 2 1 2 2 2 2 2 2 3 3 3 3 3 3 3 3 3 4 4 4 4 5
1 1 1 1 1 1 1 1 1 1 2 2 3 3 6 6 6 6 5 2 2 2 2 2 2 2 2 2 3 3 3 3 3 3 3 3 3 3 3 4 4 6 5
0 1 1 1 1 0 0 0 1 1 2 2 2 3 4 4 3 3 3 2 2 2 2 2 2 2 2 2 3 3 3 3 3 3 3 3 3 3 4 5 4 4 4
1 1 1 0 0 0 0 1 1 1 1 2 2 3 5 3 2 3 2 2 2 2 2 2 2 2 2 2 3 3 4 3 3 3 3 3 3 3 4 4 4 4 4
1 1 1 1 0 0 1 1 1 1 2 2 3 3 6 3 2 2 2 3 2 2 2 2 2 2 3 3 3 3 3 4 3 3 3 3 3 3 3 3 3 4 4
1 1 1 1 1 1 1 1 1 1 2 2 3 3 3 2 2 2 3 3 3 3 3 2 3 3 3 3 3 3 4 4 4 4 3 3 3 3 3 3 4 4 4
1 2 1 1 1 1 1 1 1 2 2 2 2 2 2 2 3 3 3 3 3 3 3 3 3 4 5 4 3 3 4 4 4 4 4 4 3 3 3 3 4 4 4
1 2 2 1 1 1 1 2 2 2 2 2 3 3 3 3 3 3 3 3 3 3 4 4 3 4 5 6 5 5 6 7 7 4 3 3 3 3 3 4 3 4 4
1 2 2 1 2 2 2 2 2 2 2 3 3 3 3 3 3 3 3 3 3 3 4 4 4 5 6 5 6 7 8 7 7 6 3 2 2 2 3 3 3 3 3
Wind_Direction
139 141 140 149 154 150 154 162 159 153 151 158 159 160 163 159 146 138 152 152 156 24 327 247 270 279 276 285 286 284 276 264 278 292 293 306 310 313 317 313 310 309 310
138 129 132 140 145 148 149 151 148 149 156 158 152 156 173 173 164 162 183 189 192 224 253 258 277 292 291 290 291 287 280 271 272 291 302 307 306 311 312 312 317 318 307
120 117 117 123 138 147 152 146 144 146 147 148 149 166 191 199 193 189 187 201 209 224 235 243 262 267 281 287 285 284 284 294 286 285 295 303 306 314 316 313 311 308 310
116 116 116 122 130 140 141 143 145 151 157 165 172 184 200 210 205 199 192 202 214 236 246 247 256 246 256 274 281 279 285 300 302 294 297 304 309 312 315 319 320 317 311
111 111 113 104 95 95 103 116 121 131 159 169 162 174 198 216 212 197 198 205 221 256 276 269 268 272 274 276 282 278 277 286 295 297 299 305 311 322 319 315 311 313 303
112 114 113 106 98 93 96 99 95 90 92 113 154 192 242 266 249 224 218 215 235 248 264 276 282 282 281 291 296 290 285 284 286 286 289 294 300 301 305 308 312 317 310
107 108 113 112 107 101 98 86 74 59 56 35 6 355 277 275 274 254 245 229 238 248 252 264 282 289 291 281 294 307 310 308 294 277 279 284 290 293 299 302 300 300 292
105 102 98 106 109 103 98 90 66 45 29 338 330 323 294 287 288 282 273 248 252 257 255 255 262 274 277 282 286 298 298 300 301 289 267 274 282 288 282 287 289 295 288
108 114 113 112 107 100 91 68 44 42 8 334 316 323 309 293 289 293 306 260 258 263 260 262 266 264 281 294 299 299 305 306 312 312 305 304 308 311 313 313 312 313 306
112 115 108 111 112 104 87 32 14 27 339 324 316 311 295 284 287 281 284 253 257 267 272 274 277 280 288 297 289 287 296 301 308 317 323 323 316 312 320 308 296 301 304
104 100 85 83 95 101 86 44 39 24 8 333 322 319 307 289 286 282 274 255 247 262 270 277 279 292 296 302 303 281 286 301 300 306 312 313 315 314 314 310 294 279 284
93 95 81 72 69 63 82 54 49 43 358 322 317 313 305 294 291 288 286 280 278 262 269 275 282 298 304 309 311 309 314 324 317 313 312 313 316 317 314 309 300 288 268
86 85 79 69 59 58 85 94 73 69 275 291 291 296 303 303 296 297 291 293 289 285 273 281 292 305 314 314 316 320 328 326 314 309 307 304 300 297 303 308 305 299 292
98 93 93 82 51 28 7 334 276 264 274 292 306 305 305 303 294 291 288 299 307 307 306 301 308 316 325 320 322 327 324 304 306 293 295 296 300 306 310 311 312 321 318
118 118 103 78 72 18 352 323 301 274 264 281 277 275 289 293 297 306 306 292 287 274 297 304 323 321 322 322 323 322 319 322 318 303 300 305 311 314 315 317 310 313 308
132 137 171 191 249 334 350 345 347 324 327 318 307 303 299 305 313 314 305 299 301 295 295 282 289 291 293 298 305 308 306 308 305 302 302 304 310 313 316 319 315 310 308
158 175 188 220 261 286 312 328 329 340 345 341 339 337 332 325 323 316 315 308 298 304 303 285 284 286 289 292 293 293 297 301 301 298 299 301 303 308 312 316 317 315 311
149 183 197 202 226 246 259 280 294 311 324 331 342 345 340 336 333 330 321 324 318 333 305 290 288 287 289 290 290 291 294 300 300 298 298 299 300 303 305 306 307 306 307
160 186 197 207 224 230 243 258 296 306 309 314 323 333 343 340 342 344 341 335 309 304 299 291 288 288 288 289 288 288 288 292 294 295 296 296 295 297 298 299 300 305 308
199 240 242 195 201 200 257 299 312 315 315 317 319 319 324 331 331 331 335 322 300 293 295 294 293 288 285 285 287 287 288 287 288 287 289 291 291 289 291 295 297 300 302
201 234 275 275 167 204 261 271 281 291 301 307 305 306 317 320 316 313 312 311 301 294 292 292 290 289 287 285 284 284 284 286 286 283 282 282 285 287 287 288 293 296 299
198 199 193 198 215 244 265 264 275 287 299 304 310 315 323 327 317 309 306 305 300 293 287 283 281 279 277 278 278 278 280 282 283 280 278 280 281 284 288 292 296 299 300
187 195 212 223 221 259 292 288 279 282 290 295 300 306 311 312 308 305 303 302 301 299 297 289 283 284 282 277 272 270 272 274 272 269 273 277 281 284 287 288 293 297 298
197 208 213 223 229 230 248 265 268 273 279 284 288 293 298 301 301 300 300 301 301 300 298 292 285 282 284 288 286 279 271 270 269 264 259 261 271 280 283 285 287 289 291
200 205 209 217 227 239 253 264 268 273 279 283 285 288 292 294 297 299 300 299 300 302 300 295 289 286 286 286 286 283 281 281 279 273 260 255 260 267 274 280 284 291 295
205 211 217 219 226 235 247 257 264 270 274 279 281 282 286 290 292 293 294 295 299 300 298 296 290 289 291 290 286 286 289 288 287 283 266 247 256 271 276 283 290 295 299